{"data":{"norad_id":66324,"intl_designator":"2025-253F","name":"STARLINK-35506","alt_names":[],"object_type":"PAYLOAD","status":"ACTIVE","operator":null,"country":"US","launch_date":"2025-11-06","launch_site_code":"AFETR","launch_vehicle":null,"mission":null,"orbit_class":"UNKNOWN","rcs_meters":null,"size_class":null,"mass_kg":null,"dimensions":null,"purposes":["comms"],"wikipedia_slug":null,"has_3d_model":false,"image_url":null,"decayed_at":null,"tle_current":{"epoch":"2026-09-20T04:24:00.909504Z","epoch_age_seconds":124051,"freshness":"FRESH","line1":"1 66324U 25253F   26263.18334386  .00007298  00000+0  27436-3 0  9993","line2":"2 66324  43.0016 193.7746 0000837 238.9013 121.1757 15.27590258 49997","mean_motion":15.27590258,"eccentricity":8.37e-5,"inclination_deg":43.0016,"raan_deg":193.7746,"arg_perigee_deg":238.9013,"mean_anomaly_deg":121.1757,"bstar":0.00027436,"rev_number":4999,"period_min":94.266115698153,"perigee_km":482.44410136393,"apogee_km":483.59265877456,"semimajor_km":6861.1553800692,"source":"CELESTRAK","updated_at":"2026-09-21T09:00:35.873779Z"}}}